| time (UTC) | temp F | wind direction | speed MPH | gust MPH | rain 1hr in | rain 24hr in | rain mn in | humidity % | barometer mb |
| 20260906230043 | 50 | 57 | 0.0 | 2.0 | 0.00 | 0.01 | 0.00 | 95 | 1016.2 |
| 20260906224541 | 50 | 46 | 0.0 | 3.0 | 0.00 | 0.01 | 0.00 | 96 | 1016.2 |
| 20260906223037 | 49 | 358 | 0.0 | 1.0 | 0.00 | 0.01 | 0.00 | 95 | 1016.3 |
| 20260906221536 | 50 | 345 | 0.0 | 2.0 | 0.00 | 0.01 | 0.00 | 94 | 1016.3 |
| 20260906220034 | 50 | 60 | 0.0 | 1.0 | 0.00 | 0.01 | 0.01 | 94 | 1016.2 |
| 20260906214533 | 51 | 70 | 0.0 | 1.0 | 0.00 | 0.01 | 0.01 | 94 | 1016.2 |
| 20260906213033 | 50 | 348 | 0.0 | 2.0 | 0.00 | 0.01 | 0.01 | 94 | 1016.3 |
| 20260906211532 | 50 | 53 | 0.0 | 0.0 | 0.00 | 0.01 | 0.01 | 93 | 1016.4 |
| 20260906210032 | 51 | 53 | 0.0 | 0.0 | 0.00 | 0.01 | 0.01 | 91 | 1016.4 |
| 20260906204535 | 52 | 53 | 0.0 | 1.0 | 0.00 | 0.01 | 0.01 | 90 | 1016.3 |
| 20260906203030 | 53 | 53 | 0.0 | 1.0 | 0.00 | 0.01 | 0.01 | 88 | 1016.3 |
| 20260906201530 | 54 | 53 | 0.0 | 0.0 | 0.00 | 0.01 | 0.01 | 86 | 1016.3 |
| 20260906200030 | 55 | 91 | 0.0 | 4.0 | 0.00 | 0.01 | 0.01 | 85 | 1016.2 |
| 20260906194529 | 55 | 99 | 0.0 | 8.0 | 0.00 | 0.01 | 0.01 | 83 | 1016.3 |
| 20260906193028 | 55 | 55 | 0.0 | 7.0 | 0.00 | 0.01 | 0.01 | 82 | 1016.4 |
| 20260906191527 | 56 | 26 | 0.0 | 5.0 | 0.00 | 0.01 | 0.01 | 81 | 1016.2 |
| 20260906190026 | 56 | 25 | 0.0 | 5.0 | 0.00 | 0.01 | 0.01 | 80 | 1016.1 |
| 20260906184526 | 56 | 57 | 0.0 | 9.0 | 0.00 | 0.01 | 0.01 | 80 | 1016.0 |
| 20260906183023 | 57 | 113 | 1.0 | 5.0 | 0.00 | 0.01 | 0.01 | 80 | 1015.8 |
| 20260906181522 | 57 | 49 | 0.0 | 5.0 | 0.00 | 0.01 | 0.01 | 78 | 1015.8 |
| 20260906180021 | 58 | 103 | 0.0 | 3.0 | 0.00 | 0.01 | 0.01 | 76 | 1015.7 |
| 20260906174519 | 59 | 36 | 1.0 | 6.0 | 0.00 | 0.01 | 0.01 | 75 | 1015.5 |
| 20260906173017 | 59 | 102 | 0.0 | 3.0 | 0.00 | 0.01 | 0.01 | 76 | 1015.3 |
| 20260906171516 | 60 | 49 | 0.0 | 2.0 | 0.00 | 0.01 | 0.01 | 75 | 1015.1 |
| 20260906170016 | 60 | 101 | 0.0 | 3.0 | 0.00 | 0.10 | 0.01 | 74 | 1015.0 |
| 20260906164516 | 61 | 59 | 0.0 | 1.0 | 0.00 | 0.10 | 0.01 | 72 | 1015.1 |
| 20260906163015 | 61 | 58 | 0.0 | 2.0 | 0.00 | 0.10 | 0.01 | 72 | 1015.2 |
| 20260906161520 | 62 | 134 | 0.0 | 4.0 | 0.00 | 0.10 | 0.01 | 71 | 1015.2 |
| 20260906160013 | 62 | 158 | 0.0 | 3.0 | 0.00 | 0.23 | 0.01 | 71 | 1015.1 |
| 20260906154525 | 62 | 72 | 2.0 | 6.0 | 0.00 | 0.23 | 0.01 | 70 | 1015.1 |
| 20260906153013 | 63 | 69 | 1.0 | 7.0 | 0.00 | 0.23 | 0.01 | 68 | 1015.1 |
| 20260906151512 | 63 | 101 | 1.0 | 6.0 | 0.00 | 0.23 | 0.01 | 68 | 1015.1 |
| 20260906150011 | 63 | 72 | 0.0 | 6.0 | 0.00 | 0.44 | 0.01 | 68 | 1015.0 |
| 20260906144515 | 64 | 139 | 0.0 | 4.0 | 0.00 | 0.44 | 0.01 | 67 | 1014.9 |
| 20260906143008 | 64 | 97 | 0.0 | 6.0 | 0.00 | 0.44 | 0.01 | 65 | 1014.9 |
| 20260906141507 | 64 | 150 | 1.0 | 4.0 | 0.00 | 0.44 | 0.01 | 63 | 1014.9 |
| 20260906140007 | 65 | 137 | 0.0 | 8.0 | 0.00 | 0.44 | 0.01 | 63 | 1014.7 |
| 20260906134505 | 65 | 118 | 2.0 | 7.0 | 0.00 | 0.44 | 0.01 | 60 | 1014.6 |
| 20260906133010 | 64 | 131 | 2.0 | 6.0 | 0.00 | 0.44 | 0.01 | 61 | 1014.6 |
| 20260906131503 | 65 | 150 | 2.0 | 11.0 | 0.00 | 0.44 | 0.01 | 59 | 1014.6 |
| 20260906130006 | 66 | 39 | 3.0 | 9.0 | 0.00 | 0.44 | 0.01 | 58 | 1014.4 |
| 20260906124601 | 66 | 148 | 1.0 | 4.0 | 0.00 | 0.44 | 0.01 | 61 | 1014.3 |
| 20260906123104 | 65 | 111 | 2.0 | 6.0 | 0.00 | 0.44 | 0.01 | 62 | 1014.3 |
| 20260906121558 | 65 | 129 | 2.0 | 9.0 | 0.00 | 0.44 | 0.01 | 62 | 1014.3 |
| 20260906120124 | 65 | 84 | 4.0 | 8.0 | 0.00 | 0.44 | 0.01 | 60 | 1014.1 |
| 20260906114605 | 66 | 138 | 1.0 | 7.0 | 0.00 | 0.44 | 0.01 | 65 | 1014.1 |
| 20260906113051 | 65 | 124 | 2.0 | 9.0 | 0.00 | 0.44 | 0.01 | 67 | 1014.0 |
| 20260906111553 | 65 | 75 | 1.0 | 8.0 | 0.00 | 0.44 | 0.01 | 71 | 1013.8 |
| 20260906110047 | 65 | 148 | 1.0 | 10.0 | 0.00 | 0.44 | 0.01 | 71 | 1013.8 |
| 20260906104546 | 65 | 98 | 0.0 | 12.0 | 0.00 | 0.44 | 0.01 | 76 | 1013.6 |
| 20260906103049 | 64 | 207 | 0.0 | 6.0 | 0.00 | 0.44 | 0.01 | 79 | 1013.6 |
| 20260906101542 | 64 | 308 | 2.0 | 9.0 | 0.00 | 0.44 | 0.01 | 77 | 1013.5 |
| 20260906100045 | 64 | 30 | 1.0 | 8.0 | 0.00 | 0.44 | 0.01 | 78 | 1013.3 |
| 20260906094547 | 63 | 66 | 0.0 | 1.0 | 0.00 | 0.44 | 0.01 | 81 | 1013.3 |
| 20260906093038 | 62 | 183 | 0.0 | 7.0 | 0.00 | 0.44 | 0.01 | 82 | 1013.3 |
| 20260906091535 | 61 | 352 | 2.0 | 7.0 | 0.00 | 0.44 | 0.01 | 84 | 1013.2 |
| 20260906090026 | 60 | 68 | 1.0 | 5.0 | 0.00 | 0.44 | 0.01 | 85 | 1013.2 |
| 20260906084523 | 60 | 101 | 1.0 | 4.0 | 0.00 | 0.44 | 0.01 | 88 | 1013.0 |
| 20260906083022 | 60 | 122 | 0.0 | 7.0 | 0.00 | 0.44 | 0.01 | 89 | 1012.9 |
| 20260906081519 | 59 | 358 | 0.0 | 5.0 | 0.00 | 0.44 | 0.01 | 93 | 1012.7 |
| 20260906080014 | 58 | 193 | 0.0 | 5.0 | 0.00 | 0.44 | 0.01 | 95 | 1012.4 |
| 20260906074512 | 58 | 71 | 0.0 | 3.0 | 0.00 | 0.44 | 0.01 | 98 | 1012.3 |
| 20260906073009 | 57 | 49 | 0.0 | 5.0 | 0.00 | 0.44 | 0.01 | 98 | 1012.3 |
| 20260906071505 | 56 | 91 | 0.0 | 4.0 | 0.00 | 0.44 | 0.01 | 98 | 1012.2 |
| 20260906070014 | 56 | 359 | 0.0 | 2.0 | 0.00 | 0.44 | 0.01 | 99 | 1012.0 |
| 20260906064501 | 54 | 68 | 0.0 | 3.0 | 0.00 | 0.44 | 0.01 | 99 | 1011.8 |
| 20260906063057 | 53 | 84 | 0.0 | 2.0 | 0.00 | 0.44 | 0.01 | 99 | 1011.7 |
| 20260906061554 | 51 | 32 | 0.0 | 2.0 | 0.00 | 0.44 | 0.01 | 99 | 1011.7 |
| 20260906060050 | 50 | 65 | 0.0 | 0.0 | 0.00 | 0.44 | 0.01 | 99 | 1011.4 |
| 20260906054602 | 48 | 65 | 0.0 | 0.0 | 0.00 | 0.44 | 0.01 | 99 | 1011.3 |
| 20260906053043 | 45 | 65 | 0.0 | 0.0 | 0.00 | 0.44 | 0.01 | 99 | 1011.1 |
| 20260906051541 | 44 | 65 | 0.0 | 0.0 | 0.00 | 0.44 | 0.01 | 99 | 1010.9 |
| 20260906050040 | 43 | 65 | 0.0 | 0.0 | 0.00 | 0.44 | 0.01 | 99 | 1010.7 |
| 20260906044539 | 42 | 65 | 0.0 | 0.0 | 0.00 | 0.44 | 0.01 | 99 | 1010.7 |
| 20260906043036 | 41 | 65 | 0.0 | 0.0 | 0.00 | 0.44 | 0.01 | 99 | 1010.4 |
| 20260906041535 | 41 | 65 | 0.0 | 0.0 | 0.00 | 0.44 | 0.01 | 99 | 1010.3 |
| 20260906040044 | 41 | 65 | 0.0 | 0.0 | 0.00 | 0.44 | 0.01 | 99 | 1010.1 |
| 20260906034545 | 42 | 65 | 0.0 | 0.0 | 0.00 | 0.44 | 0.01 | 99 | 1009.9 |
| 20260906033029 | 41 | 65 | 0.0 | 0.0 | 0.00 | 0.44 | 0.01 | 99 | 1009.8 |
| 20260906031556 | 42 | 65 | 0.0 | 0.0 | 0.00 | 0.44 | 0.01 | 99 | 1009.6 |
| 20260906030026 | 42 | 65 | 0.0 | 0.0 | 0.00 | 0.44 | 0.01 | 99 | 1009.5 |
| 20260906024548 | 43 | 65 | 0.0 | 0.0 | 0.00 | 0.44 | 0.01 | 99 | 1009.4 |
| 20260906023024 | 43 | 65 | 0.0 | 0.0 | 0.00 | 0.44 | 0.01 | 99 | 1009.3 |
| 20260906021522 | 44 | 65 | 0.0 | 1.0 | 0.00 | 0.44 | 0.01 | 99 | 1009.1 |
| 20260906020021 | 43 | 65 | 0.0 | 1.0 | 0.00 | 0.44 | 0.01 | 99 | 1009.1 |
| 20260906014520 | 42 | 65 | 0.0 | 0.0 | 0.00 | 0.44 | 0.01 | 99 | 1008.9 |
| 20260906013016 | 42 | 65 | 0.0 | 0.0 | 0.00 | 0.44 | 0.01 | 99 | 1008.8 |
| 20260906011512 | 43 | 65 | 0.0 | 0.0 | 0.00 | 0.44 | 0.01 | 99 | 1008.4 |
| 20260906010024 | 43 | 65 | 0.0 | 0.0 | 0.00 | 0.44 | 0.01 | 99 | 1008.2 |
| 20260906004508 | 44 | 65 | 0.0 | 0.0 | 0.00 | 0.44 | 0.01 | 99 | 1008.0 |
| 20260906003006 | 43 | 65 | 0.0 | 0.0 | 0.00 | 0.44 | 0.01 | 99 | 1007.8 |
| 20260906001503 | 44 | 65 | 0.0 | 0.0 | 0.01 | 0.44 | 0.01 | 98 | 1007.6 |
| 20260906000002 | 45 | 65 | 0.0 | 0.0 | 0.01 | 0.44 | 0.01 | 99 | 1007.5 |
| 20260905234606 | 46 | 65 | 0.0 | 1.0 | 0.01 | 0.44 | 0.01 | 99 | 1007.2 |
| 20260905233058 | 45 | 65 | 0.0 | 1.0 | 0.01 | 0.44 | 0.01 | 99 | 1007.1 |
| 20260905231556 | 45 | 65 | 0.0 | 0.0 | 0.00 | 0.43 | 0.00 | 99 | 1006.9 |